DW1886 Weather Reports


time (UTC)temp
F
wind
direction
speed
knots
gust
knots
rain 1hr
in
rain 24hr
in
rain mn
in
humidity
%
barometer
mb
20260505010121 68 207 0.0 3.5 0.00 0.01 0.01 59 1006.1
20260505005621 68 0 0.0 3.5 0.00 0.01 0.01 58 1006.1
20260505005121 69 0 0.0 1.7 0.00 0.01 0.01 58 1006.1
20260505005109 69 195 0.0 1.7 0.00 0.01 0.01 57 1006.0
20260505004121 69 202 0.0 1.7 0.00 0.01 0.01 56 1006.2
20260505003840 70 0 0.9 2.6 0.00 0.01 0.01 55 1006.2
20260505003122 71 0 0.9 3.5 0.00 0.01 0.01 54 1006.3
20260505002625 71 156 0.9 4.3 0.00 0.01 0.01 53 1006.4
20260505002122 71 182 0.9 4.3 0.00 0.01 0.01 52 1006.4
20260505001622 71 145 0.9 2.6 0.00 0.01 0.01 53 1006.3
20260505001122 71 321 0.0 2.6 0.00 0.01 0.01 51 1006.6
20260505000622 71 333 0.0 1.7 0.00 0.01 0.01 52 1006.5
20260505000123 71 177 0.9 4.3 0.00 0.01 0.01 52 1006.6
20260504235849 72 326 0.9 4.3 0.00 0.01 0.01 50 1006.8
20260504235120 72 254 0.9 3.5 0.00 0.01 0.01 49 1006.8
20260504234835 73 0 0.9 7.8 0.00 0.01 0.01 49 1006.8
20260504234117 73 229 1.7 7.8 0.00 0.01 0.01 48 1007.2
20260504233618 74 137 1.7 4.3 0.00 0.01 0.01 46 1007.3
20260504233117 75 321 1.7 6.1 0.00 0.01 0.01 46 1007.5
20260504232616 75 207 1.7 6.1 0.00 0.01 0.01 47 1007.2
20260504232117 75 0 1.7 7.0 0.00 0.01 0.01 49 1007.1
20260504231617 75 314 0.9 7.0 0.00 0.01 0.01 51 1007.0
20260504231117 75 229 0.9 3.5 0.00 0.01 0.01 52 1006.8
20260504230835 75 0 0.9 3.5 0.00 0.01 0.01 50 1007.0
20260504230117 75 202 0.9 2.6 0.00 0.01 0.01 51 1007.2
20260504225615 75 351 0.0 1.7 0.00 0.01 0.01 55 1007.0
20260504225117 75 193 0.0 2.6 0.00 0.01 0.01 52 1007.1
20260504224616 75 221 0.0 2.6 0.00 0.01 0.01 51 1007.5
20260504224604 75 258 0.0 1.7 0.00 0.02 0.01 49 1007.5
20260504223613 76 212 0.9 4.3 0.00 0.02 0.01 49 1007.7
20260504223112 77 0 0.9 4.3 0.00 0.02 0.01 47 1007.8
20260504222612 78 0 0.9 4.3 0.00 0.02 0.01 46 1007.7
20260504222340 78 233 0.9 1.7 0.00 0.02 0.01 47 1007.5
20260504221835 76 245 0.9 1.7 0.00 0.02 0.01 49 1007.3
20260504221112 76 161 0.9 3.5 0.00 0.02 0.01 52 1007.5
20260504220611 75 189 0.9 3.5 0.00 0.02 0.01 49 1007.8
20260504220111 74 0 0.0 1.7 0.00 0.02 0.01 54 1007.3
20260504215612 74 197 0.0 2.6 0.00 0.02 0.01 54 1007.7
20260504215112 73 229 0.9 3.5 0.00 0.02 0.01 61 1007.4
20260504214611 73 180 0.9 3.5 0.00 0.02 0.01 56 1007.7
20260504214107 73 270 0.9 3.5 0.00 0.02 0.01 57 1007.9
20260504213608 73 217 0.9 4.3 0.00 0.02 0.01 56 1007.9
20260504213105 73 156 1.7 4.3 0.00 0.02 0.01 55 1008.0
20260504212604 74 293 0.9 4.3 0.00 0.02 0.01 56 1007.8
20260504212104 74 0 0.9 5.2 0.00 0.02 0.01 54 1007.9
20260504211840 73 166 1.7 5.2 0.00 0.02 0.01 59 1007.9
20260504211104 73 187 1.7 5.2 0.00 0.02 0.01 55 1008.3
20260504210605 73 236 1.7 5.2 0.00 0.02 0.01 58 1007.8
20260504210104 73 251 0.9 3.5 0.00 0.02 0.01 58 1008.3
20260504205602 73 214 0.9 2.6 0.00 0.02 0.01 56 1008.2
20260504205058 72 200 0.9 2.6 0.00 0.02 0.01 59 1008.4
20260504204555 72 5 1.7 5.2 0.00 0.02 0.01 59 1008.0
20260504204056 71 0 1.7 5.2 0.00 0.02 0.01 56 1008.1
20260504203552 71 295 2.6 8.7 0.00 0.02 0.01 58 1008.5
20260504203541 71 0 3.5 8.7 0.00 0.02 0.01 58 1008.5
20260504202552 71 290 2.6 6.1 0.00 0.02 0.01 59 1008.9
20260504202536 72 272 1.7 6.1 0.00 0.02 0.01 58 1008.6
20260504201553 71 302 1.7 3.5 0.00 0.02 0.01 63 1008.4
20260504201052 70 0 1.7 3.5 0.00 0.02 0.01 63 1008.6
20260504200552 69 0 0.9 5.2 0.00 0.02 0.01 66 1008.7
20260504200052 68 0 1.7 5.2 0.01 0.02 0.01 67 1008.3
20260504195553 67 144 1.7 4.3 0.01 0.02 0.01 69 1008.3
20260504195053 67 204 0.9 2.6 0.01 0.02 0.01 70 1008.4
20260504194817 66 58 0.9 3.5 0.01 0.02 0.01 71 1008.4
20260504194314 66 0 0.0 3.5 0.01 0.02 0.01 70 1008.5
20260504193550 65 241 0.0 3.5 0.01 0.02 0.01 71 1008.5
20260504193054 65 0 0.9 2.6 0.01 0.02 0.01 71 1008.6
20260504192549 65 319 0.9 2.6 0.01 0.02 0.01 70 1008.5
20260504192050 65 0 0.9 2.6 0.01 0.02 0.01 73 1009.0
20260504191550 66 198 0.9 3.5 0.01 0.02 0.01 71 1009.0
20260504191051 66 182 0.9 4.3 0.01 0.02 0.01 72 1008.7
20260504190551 66 294 1.7 4.3 0.01 0.02 0.01 67 1008.8
20260504190049 67 226 1.7 5.2 0.00 0.02 0.00 67 1009.7
20260504185549 67 299 1.7 6.1 0.00 0.02 0.00 64 1009.9
20260504185042 67 236 2.6 6.1 0.00 0.02 0.00 65 1009.4
20260504184542 68 239 2.6 8.7 0.00 0.02 0.00 62 1009.5
20260504184043 68 265 3.5 8.7 0.00 0.02 0.00 62 1009.4
20260504183542 69 261 2.6 8.7 0.00 0.02 0.00 62 1009.4
20260504183044 70 77 1.7 7.0 0.00 0.02 0.00 62 1009.3
20260504182544 71 281 0.9 4.3 0.00 0.02 0.00 65 1009.0
20260504182044 71 214 1.7 6.1 0.00 0.02 0.00 62 1009.1
20260504181545 72 246 2.6 7.0 0.00 0.01 0.00 59 1009.1
20260504181045 73 192 2.6 7.0 0.00 0.01 0.00 56 1009.2
20260504180544 73 283 1.7 6.1 0.00 0.01 0.00 59 1009.5
20260504180040 71 225 2.6 7.0 0.00 0.01 0.00 66 1008.7
20260504175806 71 210 2.6 7.0 0.00 0.01 0.00 59 1008.8
20260504175307 71 267 2.6 5.2 0.00 0.01 0.00 58 1008.6
20260504174541 71 226 1.7 6.1 0.00 0.01 0.00 58 1008.9
20260504174042 71 250 1.7 6.1 0.00 0.01 0.00 56 1009.0
20260504173811 71 255 1.7 5.2 0.00 0.01 0.00 60 1008.9
20260504173040 70 260 1.7 5.2 0.00 0.01 0.00 59 1008.8
20260504172543 69 153 1.7 5.2 0.00 0.01 0.00 62 1008.9
20260504172042 69 285 1.7 5.2 0.00 0.01 0.00 62 1008.7
20260504171540 69 170 0.9 3.5 0.00 0.01 0.00 60 1009.2
20260504171040 69 193 0.9 2.6 0.00 0.01 0.00 64 1008.8
20260504171027 68 215 0.9 3.5 0.00 0.01 0.00 63 1009.1
20260504151028 64 180 0.9 4.3 0.00 0.01 0.00 64 1009.7
20260504150802 65 0 0.9 3.5 0.00 0.01 0.00 63 1009.6
20260504141023 62 256 1.7 6.1 0.00 0.01 0.00 69 1009.9
20260504140522 62 162 1.7 5.2 0.00 0.01 0.00 66 1009.9
20260504130515 56 263 1.7 3.5 0.00 0.01 0.00 71 1009.8
20260504110435 48 65 0.0 1.7 0.00 0.01 0.00 76 1009.7
20260504100424 46 15 0.9 1.7 0.00 0.01 0.00 79 1009.9
20260504081833 48 74 0.9 2.6 0.00 0.01 0.00 73 1010.5
20260504081333 49 75 0.9 1.7 0.00 0.01 0.00 72 1010.6
20260504080831 49 89 0.9 2.6 0.00 0.01 0.00 71 1010.7
20260504080341 49 309 0.9 2.6 0.00 0.01 0.00 71 1010.7
20260504080318 49 69 0.9 1.7 0.00 0.01 0.00 71 1010.7
20260504060242 49 0 0.9 2.6 0.00 0.01 0.00 69 1011.7
20260504050726 51 0 0.9 1.7 0.00 0.01 0.00 67 1012.1
20260504050226 51 254 0.0 1.7 0.00 0.01 0.00 67 1012.2
20260504045724 51 342 0.0 1.7 0.00 0.01 0.00 65 1012.2
20260504045226 51 257 0.0 1.7 0.00 0.01 0.00 65 1012.3
20260504044725 51 180 0.9 1.7 0.00 0.01 0.00 64 1012.3
20260504044454 52 133 0.9 1.7 0.00 0.01 0.00 64 1012.3
20260504043726 52 188 0.9 1.7 0.00 0.01 0.00 63 1012.4
20260504043222 52 240 0.0 1.7 0.00 0.01 0.00 62 1012.4
20260504042719 52 42 0.9 1.7 0.00 0.01 0.00 62 1012.4
20260504042214 53 159 0.9 1.7 0.00 0.01 0.00 62 1012.4
20260504041714 53 168 0.9 1.7 0.00 0.01 0.00 60 1012.5
20260504041657 53 88 0.9 1.7 0.00 0.01 0.00 60 1012.6
20260504040657 53 200 0.9 1.7 0.00 0.01 0.00 60 1012.6
20260504040202 54 0 0.9 1.7 0.00 0.01 0.00 59 1012.7
20260504035654 54 64 0.9 3.5 0.00 0.01 0.01 58 1012.7
20260504035141 54 195 0.9 3.5 0.00 0.01 0.01 58 1012.8
20260504034644 54 175 0.9 1.7 0.00 0.01 0.01 58 1012.8
20260504034143 55 0 0.9 1.7 0.00 0.01 0.01 58 1012.8
20260504033642 55 149 0.9 1.7 0.00 0.01 0.01 57 1012.9
20260504033142 55 0 0.9 1.7 0.00 0.01 0.01 56 1013.0
20260504032642 55 177 0.9 1.7 0.00 0.01 0.01 58 1013.0
20260504032408 55 0 0.9 1.7 0.00 0.01 0.01 56 1012.9
20260504031914 55 203 0.9 3.5 0.00 0.01 0.01 55 1013.0
20260504031405 55 217 0.9 3.5 0.00 0.01 0.01 55 1013.2
20260504030643 55 241 0.9 1.7 0.00 0.01 0.01 56 1013.1
20260504030141 55 300 0.0 1.7 0.00 0.01 0.01 55 1013.0
20260504025631 55 230 0.9 1.7 0.00 0.01 0.01 57 1013.1
20260504025127 55 230 0.0 0.9 0.00 0.01 0.01 56 1013.0
20260504024628 56 255 0.0 0.9 0.00 0.01 0.01 56 1013.2
20260504024131 56 0 0.9 1.7 0.00 0.01 0.01 55 1013.3
20260504023849 56 297 0.9 1.7 0.00 0.01 0.01 53 1013.4
20260504023128 56 302 0.0 1.7 0.00 0.01 0.01 55 1013.3
20260504022628 56 356 0.0 1.7 0.00 0.01 0.01 54 1013.3
20260504022128 56 0 0.0 1.7 0.00 0.01 0.01 55 1013.3
20260504021628 56 0 0.0 0.9 0.00 0.01 0.01 51 1013.5
20260504021129 56 0 0.0 1.7 0.00 0.01 0.01 51 1013.6
20260504020628 56 0 0.0 1.7 0.00 0.01 0.01 54 1013.5
20260504020121 56 0 0.0 1.7 0.00 0.01 0.01 51 1013.4
20260504015621 56 0 0.0 1.7 0.00 0.01 0.01 53 1013.3
20260504015121 56 0 0.0 1.7 0.00 0.01 0.01 54 1013.2
20260504014622 56 122 0.0 1.7 0.00 0.01 0.01 48 1013.7
20260504014122 56 0 0.0 1.7 0.00 0.01 0.01 49 1013.5
20260504013621 56 0 0.0 1.7 0.00 0.01 0.01 49 1013.4
20260504013121 56 0 0.0 1.7 0.00 0.01 0.01 47 1013.4
20260504012618 56 334 0.0 1.7 0.00 0.01 0.01 51 1013.3
20260504012117 56 0 0.0 1.7 0.00 0.01 0.01 50 1013.2
20260504011617 56 0 0.0 1.7 0.00 0.01 0.01 49 1013.4
20260504011118 56 240 0.0 1.7 0.00 0.01 0.01 50 1013.3
20260504010618 56 220 0.0 1.7 0.00 0.01 0.01 49 1013.3